Location: *
(42.5917°N, 23.7836°E)
Time: 12:29:59
(UTC+00:00)

Daily predictions for brighter satellites

Satellite Brightness Start Highest point End
(mag) Time Altitude Azimuth Time Altitude Azimuth Time Altitude Azimuth
Cosmos 1607 4.1 16:51:50 10° NW 16:58:13 87° SW 17:04:36 10° SSE
Cosmos 1269 Rocket 4.3 16:55:55 10° SSW 17:01:10 75° WNW 17:06:27 10° NNE
SJ 16-02 2.2 16:57:49 10° SSE 17:01:27 27° E 17:05:06 10° NE
SJ-7 4.1 16:58:11 10° SSE 17:01:48 64° ENE 17:05:27 10° N
Cosmos 1656 Rocket 4.4 16:58:22 10° SW 17:03:48 58° WNW 17:09:12 10° NNE
Helios 1A Rocket 4.0 17:03:21 10° ENE 17:05:12 14° E 17:07:03 10° SE
Cosmos 2082 Rocket 4.1 17:00:43 10° NW 17:05:51 35° WSW 17:10:56 10° SSW
COSMO-SKYMED 1 2.5 17:02:49 10° NNE 17:06:56 84° WNW 17:11:02 10° SSW
Cosmos 2251 Rocket 4.3 17:02:59 10° SSE 17:07:27 30° E 17:11:56 10° NE
Cosmos 2084 3.3 17:06:02 10° NNW 17:10:08 66° NE 17:14:10 10° SE
NOAA 6 4.0 17:05:12 10° SSE 17:10:20 76° ENE 17:15:28 10° N
NOSS 2-3 (D) 3.5 17:11:40 10° SW 17:15:22 68° NW 17:19:07 10° NNE
Cosmos 220 Rocket 3.8 17:13:21 10° NNW 17:17:20 61° ENE 17:21:18 10° SSE
Cosmos 2369 Rocket 2.2 17:14:34 10° SSW 17:20:16 89° SE 17:25:59 10° NNE
ISS -1.9 17:17:43 10° W 17:20:41 27° NNW 17:23:39 10° NE
Cosmos 371 Rocket 3.4 17:17:31 10° S 17:22:06 51° ESE 17:26:44 10° NNE
Cosmos 44 Rocket 3.4 17:16:56 10° NNW 17:22:10 74° NE 17:27:16 10° SE
Terra 3.6 17:23:48 12° E 17:25:12 13° ENE 17:27:22 10° NNE
CZ-2D R/B 4.3 17:21:58 10° S 17:26:04 54° W 17:30:11 10° NNW
Cosmos 1066 Rocket 4.1 17:23:48 10° N 17:29:15 84° E 17:34:35 10° S
CZ-4 R/B 2.5 17:30:57 17° ESE 17:32:51 24° ENE 17:35:59 10° NNE
SL-19 R/B 4.3 17:28:50 10° SSE 17:34:16 81° WSW 17:39:33 10° NNW
ERS-1 Rocket 4.3 17:32:20 16° E 17:34:20 20° ENE 17:37:52 10° NNE
Cosmos 1766 2.8 17:34:50 10° S 17:37:59 52° E 17:41:10 10° NNE
Cosmos 1763 Rocket 3.6 17:33:58 10° NNW 17:39:16 81° WSW 17:44:32 10° SSE
In-Cosmos 22 4.1 17:35:07 10° N 17:40:20 58° ENE 17:45:34 10° SSE
SeaSat 1 3.9 17:40:42 16° ENE 17:42:34 20° NE 17:46:05 10° N
Cosmos 1536 2.5 17:40:01 10° S 17:43:44 74° E 17:47:30 10° NNE
Cosmos 1151 Rocket 3.3 17:40:54 10° N 17:44:55 41° ENE 17:47:55 16° SE
Cosmos 407 Rocket 4.1 17:40:24 10° SSW 17:45:39 61° WNW 17:50:56 10° NNE
Cosmos 2297 4.3 17:42:49 10° SW 17:48:23 61° WNW 17:54:03 10° NNE
Cosmos 1842 Rocket 4.2 17:45:49 10° NNW 17:50:02 57° W 17:54:14 10° S
Cosmos 1833 4.1 17:45:55 10° NNW 17:51:37 70° ENE 17:56:27 14° SSE
Okean O Rocket 3.7 17:52:47 12° NE 17:52:47 12° NE 17:54:02 10° NE
ADEOS 4.5 17:52:58 24° E 17:54:41 29° ENE 17:59:07 10° N
USA 238 DEB 3.4 17:53:17 10° SSW 17:59:18 88° ESE 18:05:57 10° NE
USA 238 3.4 17:53:26 10° SSW 17:59:27 87° SE 18:06:06 10° NE
Meteor 2-9 Rocket 4.5 17:53:58 10° SSE 17:59:32 49° E 18:05:09 10° NNE
Meteor 1-11 Rocket 4.3 17:58:30 15° SSE 18:02:25 34° E 18:07:27 10° NNE
Cosmos 1470 3.8 18:05:42 24° NE 18:05:42 24° NE 18:07:20 10° NNE
USA 276 2.0 18:01:23 10° NW 18:04:05 53° NNE 18:04:05 53° NNE
CZ-4B R/B 3.3 18:02:39 29° SSE 18:04:17 72° ENE 18:07:44 10° N
Cosmos 1190 Rocket 3.9 17:59:52 10° SSW 18:05:03 90° SE 18:10:19 10° NNE
USA 290 4.0 18:03:01 10° N 18:04:36 20° NNE 18:04:36 20° NNE
Meteor 1-31 Rocket 2.3 18:04:36 33° SSE 18:06:01 73° ENE 18:09:29 10° N
SL-14 R/B 3.3 18:07:14 10° N 18:11:06 78° W 18:14:11 16° S
CSL-04 Debris 4.0 18:07:37 13° SSE 18:12:28 79° ENE 18:17:50 10° N
SL-08 R/B 4.4 18:09:02 10° NNE 18:11:34 25° ENE 18:11:34 25° ENE
DELTA 2 R/B (1) 3.6 18:10:07 10° WSW 18:15:37 63° S 18:17:35 39° ESE
BREEZE-M DEB (TANK) 4.2 18:09:14 10° W 18:16:20 36° NNW 18:17:57 23° NE
Milstar 3 Cent rocket 4.4 18:14:15 10° SW 18:18:18 19° S 18:21:34 15° SSE
MOS 1 4.3 18:17:48 33° SE 18:20:10 56° ENE 18:25:40 10° N
SPOT 5 3.3 18:19:31 10° S 18:24:47 71° WSW 18:30:00 10° NNW
Cosmos 332 Rocket 3.7 18:24:27 10° S 18:29:10 61° ESE 18:33:57 10° NNE
Resurs 01 Rocket 4.4 18:26:46 10° SW 18:29:50 18° W 18:32:55 10° NW
Feng Yun 1-1 Rocket 4.3 18:27:20 26° SSE 18:30:47 81° ENE 18:36:37 10° NNW
Okean-O 4.2 18:32:54 21° NNE 18:32:54 21° NNE 18:34:58 10° N
Cosmos 676 Rocket 3.9 18:26:29 10° SSW 18:31:43 87° WNW 18:37:01 10° NNE
PAYLOAD B 4.1 18:30:21 34° SSE 18:32:51 79° ENE 18:38:24 10° NNW
Intercosmos 25 3.4 18:29:29 10° N 18:33:07 83° E 18:34:08 53° SSE
Meteor 2-11 Rocket 4.4 18:33:31 38° SSE 18:35:36 56° E 18:41:32 10° NNE
CSL-04 Rocket 4.1 18:30:20 10° S 18:35:36 60° W 18:40:59 10° NNW
USA 59 Rocket 1.8 18:32:31 10° SSW 18:33:41 17° SSW 18:33:41 17° SSW
Helios 1A Rocket 4.4 18:34:32 10° N 18:37:23 28° WNW 18:40:13 10° SW
Cosmos 2297 Rocket 3.4 18:34:34 10° N 18:38:57 26° NE 18:38:57 26° NE
SJ 16-02 3.5 18:35:48 10° WSW 18:39:27 27° WNW 18:43:08 10° N
CZ-4B R/B 3.0 18:40:47 57° SE 18:41:51 76° ENE 18:47:15 10° N
CZ-4B DEB 4.3 18:41:51 29° S 18:44:43 72° WSW 18:50:09 10° NNW
Cosmos 841 Rocket 3.5 18:44:01 10° NNW 18:49:12 79° WSW 18:50:05 61° S
Cosmos 968 Rocket 4.0 18:45:20 10° SSW 18:52:00 44° NNE 18:55:30 10° NNE
SL-08 R/B 4.3 18:49:53 55° SSE 18:51:07 69° E 18:57:10 10° NNE
Cosmos 1975 3.8 18:53:28 42° WNW 18:53:28 42° WNW 18:56:44 10° N
Meteor 1-13 Rocket 4.0 18:50:49 10° N 18:56:22 87° E 18:56:49 76° SSE
ISS -1.1 18:55:58 10° NW 18:57:37 16° NNW 18:57:37 16° NNW
Terra 1.9 19:02:24 71° WNW 19:02:24 71° WNW 19:06:48 10° NNW
Meteor 1-23 Rocket 4.5 18:59:15 10° N 19:04:13 58° NE 19:04:13 58° NE
CZ-4 R/B 3.2 19:05:56 24° WSW 19:06:46 26° W 19:10:04 10° NW
IRS-1A Rocket 4.1 19:10:37 84° NW 19:10:37 84° NW 19:16:00 10° NNW
ERS-1 Rocket 3.5 19:12:11 51° WSW 19:12:37 53° W 19:17:30 10° NNW
SeaSat 1 3.0 19:20:20 55° WNW 19:20:20 55° WNW 19:24:22 10° NNW
Okean O Rocket 3.4 19:30:01 28° NNW 19:30:01 28° NNW 19:32:08 10° NNW
Spot 2 Rocket 4.5 19:32:43 43° NNW 19:32:43 43° NNW 19:36:07 10° NNW
Cosmos 2344 4.3 19:31:35 10° NNW 19:39:11 47° NE 19:39:44 47° NE
Cosmos 2227 Rocket 3.9 19:37:31 10° N 19:40:11 24° NNE 19:40:11 24° NNE
Cosmos 2263 Rocket 4.2 19:51:17 10° N 19:53:13 19° N 19:53:13 19° N
USA 234 4.1 20:10:06 44° N 20:10:06 44° N 20:15:00 10° NW
Cosmos 2297 Rocket 4.0 20:18:09 10° NW 20:20:45 27° NW 20:20:45 27° NW
CENTAUR R/B 4.4 21:24:09 10° NNW 21:29:25 33° N 21:29:25 33° N
ATLAS 3B R/B 4.3 23:40:59 32° NNE 23:40:59 32° NNE 23:45:03 10° NNE
